Location: Dakoming
(43.5975°N, 104.0727°W)
Time: 16:40:38
(UTC+00:00)

Envisat - Visible Passes

Search period start: 19 January 2022 00:00
Search period end: 29 January 2022 00:00
Orbit: 764 x 766 km, 98.2° (Epoch: 19 January)

Date Brightness Start Highest point End Pass type
(mag) Time Alt. Az. Time Alt. Az. Time Alt. Az.
19 Jan 5.9 10:26:00 10° ENE 10:27:59 12° E 10:29:57 10° ESE visible
19 Jan 2.8 12:02:31 10° NNE 12:07:37 82° WNW 12:12:41 10° SSW visible
19 Jan 4.7 13:44:02 10° NW 13:45:48 12° WNW 13:47:34 10° WNW visible
20 Jan 3.9 11:25:48 10° NNE 11:30:42 46° E 11:35:33 10° S visible
20 Jan 4.0 13:05:26 10° NNW 13:09:25 24° WNW 13:13:24 10° WSW visible
21 Jan 6.0 00:22:58 10° SW 00:25:50 15° W 00:28:44 10° NW visible
21 Jan 5.2 10:49:43 10° NE 10:53:34 21° E 10:57:23 10° SE visible
21 Jan 3.1 12:27:56 10° N 12:32:49 48° WNW 12:37:41 10° SW visible
22 Jan 3.0 11:50:55 10° NNE 11:56:02 79° ESE 12:01:07 10° S visible
22 Jan 4.5 13:31:39 10° NNW 13:34:23 15° WNW 13:37:06 10° W visible
23 Jan 4.4 11:14:21 10° NNE 11:19:02 36° E 11:23:42 10° SSE visible
23 Jan 3.8 12:53:35 10° N 12:57:56 29° WNW 13:02:16 10° SW visible
24 Jan 5.6 10:38:36 10° NE 10:41:51 17° E 10:45:05 10° SE visible
24 Jan 2.9 12:16:16 10° N 12:21:17 61° WNW 12:26:16 10° SSW visible
25 Jan 3.4 11:39:23 10° NNE 11:44:25 63° E 11:49:27 10° S visible
25 Jan 4.3 13:19:34 10° NNW 13:22:56 18° WNW 13:26:19 10° WSW visible
26 Jan 6.4 00:38:36 10° W 00:39:44 11° W 00:40:51 10° WNW visible
26 Jan 4.8 11:02:59 10° NE 11:07:22 29° E 11:11:44 10° SSE visible
26 Jan 3.5 12:41:48 10° N 12:46:25 36° WNW 12:51:01 10° SW visible
27 Jan 5.8 10:27:46 10° ENE 10:30:07 13° E 10:32:28 10° ESE visible
27 Jan 2.8 12:04:36 10° N 12:09:43 77° WNW 12:14:46 10° SSW visible
27 Jan 4.8 13:46:30 10° NW 13:47:51 11° WNW 13:49:11 10° WNW visible
28 Jan 3.8 11:27:51 10° NNE 11:32:48 49° E 11:37:42 10° S visible
28 Jan 4.1 13:07:36 10° NNW 13:11:28 22° WNW 13:15:20 10° WSW visible
